Location: Duac?
(36.9744°N, 30.6500°E)
Time: 00:38:50
(UTC+00:00)

CZ-4B DEB - Pass Details

Date: 05 August 2024
Orbit: 836 x 857 km, 99.0° (Epoch: 12 September)

Event Time Altitude Azimuth Distance (km) Brightness Sun altitude
Rises 17:17:49 0° 164° (SSE) 3,399 7.0 -4.1°
Reaches altitude 10° 17:20:09 10° 164° (SSE) 2,470 6.3 -4.5°
Maximum altitude 17:25:39 87° 76° (ENE) 861 4.3 -5.5°
Drops below altitude 10° 17:31:13 10° 347° (NNW) 2,497 7.3 -6.5°
Sets 17:33:36 0° 347° (NNW) 3,439 8.0 -6.9°
